Time,TemperatureF,DewpointF,PressureIn,WindDirection,WindDirectionDegrees,WindSpeedMPH,WindSpeedGustMPH,Humidity,HourlyPrecipIn,Conditions,Clouds,dailyrainin,SoftwareType,DateUTC
2013-02-10 00:00:00,34.8,32.5,30.04,SSE,161,3.0,14.0,91,0.02,,---,0.02,VWS V14.01,2013-02-10 06:00:00,
2013-02-10 00:30:00,34.8,32.7,30.02,SE,134,5.0,18.0,92,0.03,,---,0.03,VWS V14.01,2013-02-10 06:30:00,
2013-02-10 01:00:00,34.8,33.0,30.01,SSE,156,8.0,15.0,93,0.04,,---,0.05,VWS V14.01,2013-02-10 07:00:00,
2013-02-10 01:30:00,35.0,33.2,30.00,SSE,155,9.0,15.0,93,0.04,,---,0.06,VWS V14.01,2013-02-10 07:30:00,
2013-02-10 02:00:00,35.0,33.5,29.98,SE,142,11.0,18.0,94,0.05,,---,0.08,VWS V14.01,2013-02-10 08:00:00,
2013-02-10 02:30:00,35.1,33.5,29.97,SSE,167,5.0,16.0,94,0.07,,---,0.12,VWS V14.01,2013-02-10 08:30:00,
2013-02-10 03:00:00,35.3,34.0,29.95,South,172,10.0,19.0,95,0.08,,---,0.14,VWS V14.01,2013-02-10 09:00:00,
2013-02-10 03:30:00,35.5,34.2,29.93,SSE,151,8.0,20.0,95,0.07,,---,0.15,VWS V14.01,2013-02-10 09:30:00,
2013-02-10 04:00:00,35.7,34.4,29.91,SE,140,14.0,15.0,95,0.04,,---,0.16,VWS V14.01,2013-02-10 10:00:00,
2013-02-10 04:30:00,36.0,34.7,29.88,SSE,159,14.0,19.0,95,0.02,,---,0.16,VWS V14.01,2013-02-10 10:30:00,
2013-02-10 05:00:00,37.1,36.1,29.86,SSE,155,8.0,22.0,96,0.07,,---,0.22,VWS V14.01,2013-02-10 11:00:00,
2013-02-10 05:30:00,37.8,36.8,29.84,SE,126,12.0,21.0,96,0.08,,---,0.24,VWS V14.01,2013-02-10 11:30:00,
2013-02-10 06:00:00,37.9,36.6,29.82,SE,139,3.0,21.0,95,0.12,,---,0.28,VWS V14.01,2013-02-10 12:00:00,
2013-02-10 06:30:00,37.9,36.6,29.81,ESE,119,11.0,25.0,95,0.07,,---,0.29,VWS V14.01,2013-02-10 12:30:00,
2013-02-10 07:00:00,37.8,36.5,29.79,SSE,165,8.0,22.0,95,0.12,,---,0.36,VWS V14.01,2013-02-10 13:00:00,
2013-02-10 07:30:00,37.9,36.6,29.78,SSE,151,7.0,28.0,95,0.12,,---,0.40,VWS V14.01,2013-02-10 13:30:00,
2013-02-10 08:00:00,37.9,36.6,29.76,SSE,152,6.0,23.0,95,0.17,,---,0.46,VWS V14.01,2013-02-10 14:00:00,
2013-02-10 08:30:00,38.5,37.5,29.75,SE,140,10.0,25.0,96,0.18,,---,0.54,VWS V14.01,2013-02-10 14:30:00,
2013-02-10 09:00:00,39.1,38.1,29.71,SSE,155,10.0,24.0,96,0.16,,---,0.56,VWS V14.01,2013-02-10 15:00:00,
2013-02-10 09:30:00,40.2,39.2,29.69,SE,132,8.0,26.0,96,0.10,,---,0.56,VWS V14.01,2013-02-10 15:30:00,
2013-02-10 10:00:00,41.2,40.4,29.66,SSE,157,12.0,25.0,97,0.03,,---,0.57,VWS V14.01,2013-02-10 16:00:00,
2013-02-10 10:30:00,41.9,40.8,29.63,SE,144,10.0,24.0,96,0.04,,---,0.60,VWS V14.01,2013-02-10 16:30:00,
2013-02-10 11:00:00,43.0,42.2,29.60,SE,139,8.0,29.0,97,0.06,,---,0.62,VWS V14.01,2013-02-10 17:00:00,
2013-02-10 11:30:00,43.7,42.6,29.59,SE,140,6.0,28.0,96,0.05,,---,0.62,VWS V14.01,2013-02-10 17:30:00,
2013-02-10 12:00:00,44.6,43.5,29.58,SSW,194,13.0,27.0,96,0.02,,---,0.62,VWS V14.01,2013-02-10 18:00:00,
2013-02-10 12:30:00,45.2,44.1,29.56,South,178,15.0,26.0,96,0.00,,---,0.62,VWS V14.01,2013-02-10 18:30:00,
2013-02-10 13:00:00,46.1,44.8,29.53,South,170,13.0,24.0,95,0.00,,---,0.62,VWS V14.01,2013-02-10 19:00:00,
2013-02-10 13:30:00,46.6,45.2,29.53,South,185,9.0,25.0,95,0.00,,---,0.62,VWS V14.01,2013-02-10 19:30:00,
2013-02-10 14:00:00,47.1,45.7,29.51,South,173,5.0,27.0,95,0.00,,---,0.62,VWS V14.01,2013-02-10 20:00:00,
2013-02-10 14:30:00,47.3,45.9,29.51,South,172,13.0,27.0,95,0.00,,---,0.62,VWS V14.01,2013-02-10 20:30:00,
2013-02-10 15:00:00,47.2,45.8,29.49,SSE,153,11.0,29.0,95,0.00,,---,0.62,VWS V14.01,2013-02-10 21:00:00,
2013-02-10 15:30:00,47.9,46.5,29.49,SE,144,14.0,27.0,95,0.00,,---,0.62,VWS V14.01,2013-02-10 21:30:00,
2013-02-10 16:00:00,48.2,46.8,29.49,SSE,150,18.0,24.0,95,0.00,,---,0.62,VWS V14.01,2013-02-10 22:00:00,
2013-02-10 16:30:00,48.3,46.7,29.49,SSE,167,15.0,21.0,94,0.00,,---,0.62,VWS V14.01,2013-02-10 22:30:00,
2013-02-10 17:00:00,47.7,46.1,29.50,South,184,6.0,24.0,94,0.00,,---,0.62,VWS V14.01,2013-02-10 23:00:00,
2013-02-10 17:30:00,47.2,45.6,29.50,South,183,9.0,20.0,94,0.00,,---,0.62,VWS V14.01,2013-02-10 23:30:00,
2013-02-10 18:00:00,47.4,46.0,29.52,South,190,8.0,20.0,95,0.00,,---,0.62,VWS V14.01,2013-02-11 00:00:00,
2013-02-10 18:30:00,47.0,45.7,29.54,WSW,238,7.0,18.0,95,0.00,,---,0.62,VWS V14.01,2013-02-11 00:30:00,
2013-02-10 19:00:00,47.2,45.3,29.55,SW,227,5.0,14.0,93,0.00,,---,0.62,VWS V14.01,2013-02-11 01:00:00,
2013-02-10 19:30:00,46.5,39.7,29.56,West,260,7.0,18.0,77,0.00,,---,0.62,VWS V14.01,2013-02-11 01:30:00,
2013-02-10 20:00:00,46.6,37.7,29.56,SW,234,12.0,27.0,71,0.00,,---,0.62,VWS V14.01,2013-02-11 02:00:00,
2013-02-10 20:30:00,46.1,37.9,29.58,SW,227,9.0,21.0,73,0.00,,---,0.62,VWS V14.01,2013-02-11 02:30:00,
2013-02-10 21:00:00,45.0,36.9,29.59,SSW,207,6.0,20.0,73,0.00,,---,0.62,VWS V14.01,2013-02-11 03:00:00,
2013-02-10 21:30:00,44.0,35.2,29.59,NNE,30,8.0,23.0,71,0.00,,---,0.62,VWS V14.01,2013-02-11 03:30:00,
2013-02-10 21:34:00,46.0,37.5,29.58,West,269,7.0,19.0,72,0.00,,---,0.62,VWS V14.01,2013-02-11 03:34:00,
2013-02-10 21:39:00,45.9,37.4,29.58,SW,234,9.0,19.0,72,0.00,,---,0.62,VWS V14.01,2013-02-11 03:39:00,
2013-02-10 21:44:00,45.7,37.2,29.58,WSW,244,8.0,20.0,72,0.00,,---,0.62,VWS V14.01,2013-02-11 03:44:00,
2013-02-10 21:49:00,45.6,37.1,29.58,WSW,249,2.0,20.0,72,0.00,,---,0.62,VWS V14.01,2013-02-11 03:49:00,
2013-02-10 21:54:00,45.2,37.1,29.58,SW,226,11.0,20.0,73,0.00,,---,0.62,VWS V14.01,2013-02-11 03:54:00,
2013-02-10 21:59:00,45.0,36.9,29.59,SSW,209,6.0,20.0,73,0.00,,---,0.62,VWS V14.01,2013-02-11 03:59:00,
2013-02-10 22:00:00,42.5,34.1,29.60,WSW,257,11.0,36.0,72,0.00,,---,0.62,VWS V14.01,2013-02-11 04:00:00,
2013-02-10 22:04:00,44.7,36.9,29.59,West,268,6.0,20.0,74,0.00,,---,0.62,VWS V14.01,2013-02-11 04:04:00,
2013-02-10 22:09:00,44.4,36.7,29.59,West,271,7.0,20.0,74,0.00,,---,0.62,VWS V14.01,2013-02-11 04:09:00,
2013-02-10 22:14:00,44.1,36.7,29.59,West,260,7.0,20.0,75,0.00,,---,0.62,VWS V14.01,2013-02-11 04:14:00,
2013-02-10 22:19:00,44.0,36.3,29.59,SW,230,8.0,20.0,74,0.00,,---,0.62,VWS V14.01,2013-02-11 04:19:00,
2013-02-10 22:24:00,44.0,35.6,29.59,WSW,257,8.0,20.0,72,0.00,,---,0.62,VWS V14.01,2013-02-11 04:24:00,
2013-02-10 22:29:00,44.0,35.2,29.59,South,179,22.0,23.0,71,0.00,,---,0.62,VWS V14.01,2013-02-11 04:29:00,
2013-02-10 22:30:00,41.3,34.0,29.61,West,265,7.0,20.0,75,0.00,,---,0.62,VWS V14.01,2013-02-11 04:30:00,
2013-02-10 22:34:00,43.8,34.7,29.59,West,267,16.0,36.0,70,0.00,,---,0.62,VWS V14.01,2013-02-11 04:34:00,
2013-02-10 22:39:00,43.6,34.1,29.59,NW,305,16.0,36.0,69,0.00,,---,0.62,VWS V14.01,2013-02-11 04:39:00,
2013-02-10 22:44:00,43.3,34.2,29.60,West,275,14.0,36.0,70,0.00,,---,0.62,VWS V14.01,2013-02-11 04:44:00,
2013-02-10 22:49:00,42.9,34.2,29.59,WSW,238,13.0,36.0,71,0.00,,---,0.62,VWS V14.01,2013-02-11 04:49:00,
2013-02-10 22:54:00,42.7,34.0,29.59,SW,232,13.0,36.0,71,0.00,,---,0.62,VWS V14.01,2013-02-11 04:54:00,
2013-02-10 22:59:00,42.5,34.1,29.60,WSW,257,11.0,36.0,72,0.00,,---,0.62,VWS V14.01,2013-02-11 04:59:00,
2013-02-10 23:00:00,42.4,34.4,29.60,SW,231,10.0,15.0,73,0.00,,---,0.62,VWS V14.01,2013-02-11 05:00:00,
2013-02-10 23:05:00,42.2,34.5,29.60,West,275,10.0,19.0,74,0.00,,---,0.62,VWS V14.01,2013-02-11 05:05:00,
2013-02-10 23:10:00,41.8,34.1,29.61,WNW,298,8.0,19.0,74,0.00,,---,0.62,VWS V14.01,2013-02-11 05:10:00,
2013-02-10 23:15:00,41.6,34.3,29.61,SW,229,5.0,19.0,75,0.00,,---,0.62,VWS V14.01,2013-02-11 05:15:00,
2013-02-10 23:20:00,41.4,34.1,29.61,SW,225,9.0,20.0,75,0.00,,---,0.62,VWS V14.01,2013-02-11 05:20:00,
2013-02-10 23:25:00,41.3,34.0,29.61,West,267,7.0,20.0,75,0.00,,---,0.62,VWS V14.01,2013-02-11 05:25:00,
2013-02-10 23:30:00,41.3,34.0,29.61,SW,226,10.0,14.0,75,0.00,,---,0.62,VWS V14.01,2013-02-11 05:30:00,
2013-02-10 23:35:00,41.3,33.3,29.61,West,278,9.0,19.0,73,0.00,,---,0.62,VWS V14.01,2013-02-11 05:35:00,
2013-02-10 23:40:00,41.3,33.3,29.61,WSW,248,6.0,25.0,73,0.00,,---,0.62,VWS V14.01,2013-02-11 05:40:00,
2013-02-10 23:45:00,41.1,33.1,29.62,WSW,252,9.0,25.0,73,0.00,,---,0.62,VWS V14.01,2013-02-11 05:45:00,
2013-02-10 23:50:00,40.9,33.3,29.62,SW,224,13.0,25.0,74,0.00,,---,0.62,VWS V14.01,2013-02-11 05:50:00,
2013-02-10 23:55:00,40.7,33.1,29.62,West,271,9.0,25.0,74,0.00,,---,0.62,VWS V14.01,2013-02-11 05:55:00,